Wind_Speed
15 15 16 16 15 15 15 14 13 13 12 11 10 8 7 5 4 3 2 2 1 2 3 4 4 4 4 5 5 5 5 5 6 6 6 6 6 7 7 7 7 8 8
15 15 15 15 15 15 15 14 13 13 12 11 10 9 7 6 5 4 3 2 1 2 3 4 5 5 5 5 6 6 6 6 7 7 8 8 8 8 8 9 9 9 10
14 14 14 14 14 15 14 13 13 12 12 11 10 9 7 6 5 5 4 3 3 3 3 4 4 5 5 5 6 7 7 7 7 8 8 9 9 10 10 11 11 11 12
13 12 13 13 14 14 14 13 13 12 12 11 10 9 8 7 6 6 5 4 4 3 3 3 4 4 5 6 6 7 7 8 8 8 9 9 10 11 11 12 12 12 13
12 11 12 12 12 13 13 13 13 13 12 11 10 9 8 8 7 6 5 5 5 4 4 5 5 5 5 6 6 7 7 8 8 9 9 10 11 11 12 13 14 14 15
11 10 11 12 13 13 13 13 13 13 12 11 10 9 9 8 8 7 7 6 6 6 6 6 6 6 6 6 7 7 7 8 9 10 11 12 12 13 13 14 15 15 16
10 10 11 12 12 13 13 13 13 13 12 11 11 10 9 9 8 8 8 8 7 8 7 6 6 7 8 8 8 7 8 9 10 11 12 13 14 15 15 16 16 16 17
10 10 11 12 12 12 12 12 12 12 12 11 11 10 10 9 9 9 9 9 9 8 8 7 7 8 8 8 8 9 10 10 11 12 12 13 14 16 16 17 17 17 18
10 10 11 11 12 11 12 12 12 12 11 11 11 11 10 9 9 9 9 10 10 9 9 9 8 8 8 9 10 11 11 12 12 13 14 15 15 16 16 17 18 18 19
11 10 10 10 11 12 11 12 12 12 12 11 11 11 10 9 10 10 10 10 10 10 10 9 9 8 9 11 11 12 12 12 13 14 15 16 16 17 18 19 19 20 20
11 10 11 11 11 11 11 11 12 12 11 11 12 11 11 10 11 11 11 11 11 11 10 10 10 10 10 11 12 13 13 14 14 15 16 16 18 18 19 20 20 21 22
10 10 10 10 11 10 10 12 12 12 12 12 13 13 12 11 11 12 11 12 12 11 11 11 11 11 11 12 13 13 13 14 15 15 16 17 18 19 20 21 21 22 22
11 10 10 10 10 10 11 12 12 13 13 14 14 14 14 13 12 13 13 13 12 12 12 12 12 12 12 12 13 14 14 14 15 16 16 17 18 19 20 21 22 22 23
11 10 10 11 11 11 11 12 13 13 14 14 15 15 15 14 14 14 14 13 13 13 13 13 13 13 13 13 14 15 15 15 16 16 17 17 18 19 20 21 22 23 24
12 11 11 11 12 12 13 13 14 15 15 16 16 16 17 17 16 16 16 15 15 14 14 13 13 13 14 14 14 15 15 16 17 18 18 19 20 21 22 23 23 24 24
13 13 13 13 13 14 15 15 16 16 17 18 18 18 18 18 18 17 17 15 16 16 15 15 15 15 14 14 15 16 16 16 17 18 19 19 20 22 23 23 24 24 24
16 15 14 15 15 16 17 17 18 18 19 20 20 19 19 19 18 17 18 18 18 17 17 17 16 16 16 16 17 17 17 18 18 19 20 21 21 22 23 23 24 24 24
17 17 16 16 17 18 18 19 20 20 21 21 21 20 20 19 18 18 18 19 19 18 17 17 17 17 17 18 18 18 18 19 20 20 21 21 22 23 23 23 24 24 25
18 19 18 18 18 19 20 21 22 22 22 21 21 21 21 20 19 19 19 20 20 19 19 18 18 18 18 19 19 19 20 20 21 21 22 22 23 23 23 24 25 25 25
19 20 20 20 20 20 21 23 23 23 23 23 22 22 21 20 20 20 20 21 22 21 20 20 19 20 20 20 20 21 22 22 23 23 23 24 24 24 24 24 25 25 26
22 23 23 23 22 23 23 24 24 23 23 23 23 23 22 21 21 21 22 22 22 21 21 21 20 21 21 21 22 22 23 23 24 24 25 25 25 25 25 26 26 27 27
24 25 24 24 24 24 25 25 25 25 24 24 24 24 24 23 23 23 23 23 23 22 22 22 22 22 22 22 22 22 23 24 25 25 25 26 26 26 26 26 27 27 28
26 26 26 25 25 26 27 26 26 26 26 26 26 26 25 25 25 24 24 23 23 23 24 24 24 23 23 23 23 24 24 24 25 26 27 27 27 27 28 27 28 28 29
28 28 28 27 27 27 28 28 28 27 28 28 27 26 26 26 26 25 25 24 24 25 25 24 25 25 25 25 25 25 25 26 26 27 27 28 28 28 29 28 28 29 30
29 29 29 29 29 29 29 30 30 29 28 27 27 27 27 27 27 27 26 26 25 26 26 26 26 27 26 26 26 27 27 27 27 28 28 29 29 29 29 28 28 28 29
32 31 31 31 31 32 32 32 31 30 29 29 28 28 28 28 28 27 27 27 26 26 26 26 26 26 27 27 28 28 28 28 28 29 29 29 29 28 28 28 28 29 29
Wind_Direction
18 17 15 17 19 19 20 24 25 26 26 25 25 29 31 35 41 40 40 58 139 217 235 235 234 236 239 239 237 242 244 248 252 257 260 262 263 266 268 270 270 272 270
13 11 10 15 16 17 18 21 22 22 22 21 21 23 24 28 27 21 18 12 341 299 278 258 243 248 252 249 243 245 249 255 256 259 261 265 267 268 273 277 278 277 274
7 6 5 8 10 11 12 13 15 15 16 14 12 12 16 18 14 9 7 1 336 308 291 272 257 259 260 256 255 254 258 262 261 261 265 267 269 272 275 279 281 281 280
3 4 4 5 5 9 12 13 12 10 9 9 7 3 6 9 6 357 353 344 335 315 298 291 284 277 270 267 264 259 261 264 269 271 271 269 270 274 276 281 280 281 283
360 5 8 11 10 10 10 13 11 9 6 5 5 2 359 359 357 348 340 334 327 313 304 298 293 287 281 275 274 265 264 268 271 273 274 273 274 277 281 282 281 282 284
0 4 7 9 9 7 7 8 8 7 6 4 3 1 357 353 353 352 346 334 327 319 305 296 290 289 284 280 278 274 273 275 276 276 277 277 277 277 280 282 283 283 283
359 0 360 2 4 4 5 5 4 4 4 3 2 359 356 354 352 355 354 345 331 323 312 301 291 287 285 281 278 278 279 278 279 280 281 281 281 280 281 281 282 283 285
353 354 354 357 359 0 1 1 360 359 359 1 2 358 359 357 355 352 349 344 335 327 319 308 298 291 286 283 280 279 282 284 288 289 291 289 286 284 283 283 283 284 288
343 344 348 353 357 356 356 358 356 356 358 1 1 357 355 353 349 346 344 342 339 333 323 318 308 299 294 288 285 284 283 285 289 293 295 294 293 293 290 288 287 286 287
331 335 345 349 351 352 351 353 355 354 355 356 356 353 351 346 340 340 340 337 334 332 329 324 314 306 302 298 293 290 290 290 293 294 295 295 295 293 291 289 288 287 287
324 330 339 342 343 346 350 349 350 350 351 350 350 349 345 342 343 339 338 337 335 333 332 327 317 308 302 298 293 290 292 291 292 293 292 292 293 292 294 291 289 290 289
316 324 333 339 340 342 345 345 347 348 347 346 345 343 342 340 340 339 336 335 332 329 325 322 316 310 305 302 300 295 295 295 295 295 294 293 294 294 293 293 292 292 291
306 316 326 334 335 335 337 337 340 342 344 344 342 341 340 338 336 335 334 331 328 323 320 314 311 310 307 306 306 302 299 299 298 297 296 296 296 297 296 295 295 294 292
297 308 316 325 331 331 334 334 334 336 336 335 333 333 333 331 329 328 326 325 325 323 321 317 314 310 309 310 308 305 301 299 298 299 299 299 297 297 297 297 296 296 296
288 298 306 315 324 328 327 327 328 329 329 329 328 327 329 327 325 321 322 319 320 320 320 318 316 311 308 309 310 310 307 303 301 299 299 299 299 298 299 299 299 299 298
278 287 296 303 311 317 319 321 322 324 326 326 326 323 324 325 324 323 323 319 316 315 313 312 313 311 308 307 307 309 309 308 305 303 302 301 302 302 302 302 301 300 299
271 278 287 294 302 309 314 317 317 318 321 322 323 322 320 319 321 323 322 322 321 315 312 311 310 308 306 305 305 305 306 306 305 303 302 302 302 303 303 303 303 302 300
266 274 283 291 297 303 308 311 314 314 316 318 319 318 317 316 314 316 319 320 321 317 312 310 308 306 305 305 304 303 305 306 306 305 305 305 305 305 305 305 304 303 302
264 271 278 285 292 298 304 307 310 312 312 314 315 316 314 312 311 312 314 315 316 315 312 309 307 304 303 303 303 303 303 305 306 307 307 307 306 306 306 305 305 304 304
265 270 275 281 289 295 300 304 306 308 308 310 312 312 313 312 310 309 311 313 313 312 312 311 310 306 301 299 300 302 303 304 305 305 305 305 306 306 305 305 306 305 305
264 269 275 279 284 290 296 301 304 304 304 306 310 309 309 309 310 309 309 310 309 308 309 308 308 307 303 299 298 300 302 302 303 303 304 304 305 306 306 306 306 306 306
263 268 273 278 282 287 292 296 299 302 302 303 305 306 307 307 307 306 306 307 306 307 306 306 307 306 304 301 300 300 302 303 303 304 303 304 305 305 306 306 307 307 307
263 269 272 276 280 284 289 293 295 297 298 300 301 303 303 303 304 303 305 306 305 306 308 306 305 305 305 302 300 302 302 303 304 304 305 305 305 306 306 305 305 306 307
264 269 271 275 278 283 287 290 292 295 297 298 299 300 301 301 300 301 302 303 304 305 305 304 305 304 303 303 302 302 302 303 304 304 304 305 304 304 305 305 305 305 306
266 269 271 274 279 282 285 288 290 292 293 294 295 296 298 299 299 299 300 301 301 304 303 303 303 303 301 301 302 301 301 302 303 304 304 304 304 304 305 305 305 306 306
264 267 271 274 278 281 284 286 288 289 291 292 293 294 296 296 295 297 297 298 300 301 302 302 303 303 301 300 300 301 301 301 303 304 305 305 305 305 305 305 306 306 307
Height
5935 5932 5930 5927 5925 5922 5919 5917 5915 5913 5911 5908 5907 5906 5905 5904 5903 5903 5902 5902 5902 5901 5901 5901 5901 5902 5902 5902 5902 5902 5902 5902 5902 5902 5902 5902 5902 5902 5901 5901 5900 5900 5900
5935 5933 5931 5928 5926 5923 5921 5918 5916 5914 5912 5910 5908 5907 5906 5905 5904 5903 5902 5901 5901 5901 5901 5900 5901 5901 5901 5901 5901 5901 5901 5901 5901 5901 5901 5901 5901 5900 5899 5899 5898 5898 5898
5937 5934 5931 5929 5926 5924 5922 5919 5917 5915 5913 5911 5909 5908 5906 5905 5904 5903 5902 5902 5901 5901 5900 5900 5900 5900 5900 5900 5900 5900 5900 5900 5900 5899 5899 5899 5899 5898 5898 5897 5896 5896 5895
5937 5934 5932 5929 5927 5925 5922 5920 5918 5916 5914 5912 5910 5908 5907 5905 5904 5903 5902 5902 5901 5900 5900 5899 5899 5899 5898 5898 5898 5898 5898 5898 5898 5897 5897 5897 5896 5896 5896 5895 5894 5893 5892
5937 5935 5933 5930 5927 5925 5923 5921 5919 5916 5914 5912 5910 5909 5907 5906 5904 5903 5902 5901 5900 5899 5899 5898 5898 5897 5897 5897 5896 5896 5896 5896 5896 5896 5895 5894 5894 5893 5893 5892 5891 5891 5890
5937 5935 5933 5931 5929 5926 5924 5922 5919 5917 5915 5913 5911 5909 5907 5906 5904 5903 5902 5901 5900 5899 5898 5897 5897 5896 5896 5895 5895 5895 5894 5894 5894 5893 5893 5892 5892 5891 5890 5889 5888 5887 5886
5938 5936 5934 5932 5929 5927 5925 5922 5920 5917 5915 5913 5911 5909 5907 5906 5904 5903 5901 5900 5899 5898 5897 5896 5895 5895 5894 5894 5893 5893 5893 5892 5892 5891 5890 5889 5888 5888 5887 5886 5885 5884 5883
5938 5936 5934 5931 5929 5927 5925 5922 5920 5918 5915 5913 5911 5909 5907 5905 5904 5902 5901 5899 5898 5897 5895 5894 5894 5893 5892 5892 5891 5891 5890 5890 5889 5888 5887 5886 5885 5884 5883 5882 5881 5880 5879
5938 5935 5933 5931 5929 5927 5925 5922 5920 5918 5916 5913 5911 5909 5907 5905 5904 5902 5900 5898 5897 5895 5894 5893 5892 5891 5890 5890 5889 5888 5888 5887 5886 5885 5884 5882 5881 5880 5879 5878 5877 5876 5874
5937 5935 5933 5931 5929 5926 5924 5922 5920 5918 5916 5913 5911 5909 5907 5905 5903 5901 5899 5898 5896 5894 5892 5891 5890 5889 5888 5887 5886 5885 5884 5883 5882 5881 5880 5879 5877 5876 5875 5873 5872 5870 5869
5936 5934 5932 5930 5928 5926 5924 5922 5920 5918 5915 5913 5911 5909 5907 5904 5902 5900 5898 5897 5895 5893 5891 5890 5888 5887 5886 5884 5883 5882 5881 5880 5879 5877 5876 5875 5874 5872 5870 5868 5867 5865 5864
5934 5933 5931 5929 5927 5925 5923 5921 5919 5917 5915 5913 5910 5908 5906 5903 5901 5899 5897 5895 5893 5891 5890 5888 5886 5885 5883 5882 5880 5879 5878 5876 5875 5874 5872 5871 5869 5868 5866 5864 5862 5860 5858
5932 5931 5929 5928 5926 5924 5922 5920 5918 5916 5914 5912 5910 5907 5905 5902 5900 5898 5895 5893 5892 5890 5888 5885 5884 5882 5881 5879 5877 5876 5874 5873 5871 5870 5868 5866 5865 5863 5861 5859 5856 5854 5852
5930 5929 5928 5926 5924 5923 5921 5919 5917 5915 5913 5911 5908 5906 5903 5900 5898 5896 5894 5892 5890 5887 5885 5883 5881 5879 5878 5876 5874 5873 5871 5869 5868 5866 5864 5862 5860 5858 5856 5853 5851 5849 5846
5928 5927 5926 5925 5923 5922 5920 5918 5916 5914 5911 5909 5907 5904 5901 5899 5896 5893 5890 5888 5887 5885 5883 5880 5878 5876 5875 5873 5871 5869 5867 5865 5863 5862 5860 5858 5855 5853 5851 5848 5846 5843 5840
5925 5925 5924 5923 5921 5920 5918 5916 5914 5911 5909 5907 5904 5901 5899 5896 5894 5891 5888 5885 5883 5882 5880 5878 5876 5873 5872 5870 5868 5866 5864 5861 5859 5857 5855 5853 5851 5848 5845 5842 5840 5837 5834
5922 5922 5921 5920 5918 5917 5915 5913 5911 5909 5906 5904 5901 5898 5896 5894 5891 5889 5886 5883 5881 5878 5876 5874 5872 5870 5868 5866 5864 5862 5860 5858 5855 5853 5851 5848 5846 5843 5840 5837 5834 5831 5828
5918 5917 5917 5916 5915 5913 5912 5910 5908 5905 5903 5900 5897 5894 5892 5890 5888 5885 5883 5880 5877 5875 5872 5870 5868 5866 5864 5862 5860 5858 5856 5853 5851 5848 5845 5843 5840 5837 5834 5831 5828 5825 5822
5913 5913 5913 5912 5911 5909 5908 5906 5904 5901 5899 5896 5893 5891 5888 5886 5884 5881 5879 5876 5874 5871 5868 5866 5864 5862 5860 5858 5856 5853 5851 5848 5846 5843 5840 5837 5835 5831 5828 5825 5822 5819 5816
5908 5908 5908 5907 5906 5905 5903 5901 5899 5897 5894 5892 5889 5887 5884 5882 5879 5877 5875 5872 5869 5867 5864 5862 5860 5857 5855 5853 5851 5848 5846 5843 5841 5838 5835 5832 5829 5826 5822 5819 5816 5813 5809
5903 5903 5903 5902 5901 5900 5898 5896 5894 5892 5890 5888 5885 5882 5880 5877 5875 5873 5870 5868 5865 5862 5860 5857 5855 5852 5850 5848 5845 5843 5840 5838 5835 5832 5829 5826 5823 5820 5816 5813 5809 5806 5802
5897 5897 5897 5896 5895 5894 5893 5891 5889 5887 5884 5882 5880 5878 5875 5873 5871 5868 5865 5863 5860 5857 5855 5852 5850 5847 5844 5842 5840 5837 5835 5832 5829 5826 5823 5819 5816 5813 5810 5806 5803 5799 5795
5890 5890 5890 5890 5889 5887 5886 5885 5883 5881 5879 5877 5874 5872 5870 5867 5865 5863 5860 5857 5854 5852 5849 5846 5844 5841 5839 5836 5834 5831 5828 5825 5823 5820 5816 5813 5810 5806 5803 5799 5796 5792 5788
5883 5883 5883 5883 5882 5881 5879 5878 5876 5874 5872 5870 5868 5866 5864 5861 5859 5857 5854 5852 5849 5846 5843 5840 5838 5835 5833 5830 5827 5825 5822 5819 5816 5813 5809 5806 5803 5799 5796 5792 5788 5785 5781
5875 5875 5875 5875 5874 5873 5872 5871 5869 5867 5865 5863 5861 5859 5857 5855 5853 5850 5848 5846 5843 5840 5837 5834 5831 5829 5826 5824 5821 5818 5815 5812 5809 5806 5802 5799 5795 5792 5788 5785 5781 5777 5774
5866 5867 5867 5867 5866 5865 5864 5863 5861 5860 5858 5856 5854 5852 5850 5848 5846 5844 5841 5839 5836 5834 5831 5828 5825 5822 5819 5817 5814 5811 5808 5805 5802 5798 5795 5791 5788 5784 5781 5777 5774 5770 5766